Starlink 33627

operational
NORAD ID: 63068 Int'l Des: 2025-035 Owner: SPXS Country: US Constellation: starlink
LEOCIRCULAR

关于 Starlink 33627

正在加载描述...

实时位置

正在加载3D地球...

即将过境

高度历史

Altitude vs Time

uPlot chart will show altitude changes over time

两行轨道根数

1 63068U 25035S 25351.14024923 .00023799 00000-0 87044-3 0 9995
2 63068 43.0009 253.3833 0001688 259.8439 100.2223 15.27623031 47091
Epoch: Dec 17, 2025 • Age: 18 hours

当前状态

高度 487.0 km
速度 7.63 km/s
星下点 42.71°N, 72.44°W
发射日期 Feb 21, 2025
运行时间 0.8 years
类型 internet

技术详情

分类 Payload
质量 575.00 kg
干质量 530.00 kg
总质量 575.00 kg
长度 0.30 m
直径 4.10 m
跨度 29.00 m
形状 Box + pan
制造商 SPXS
平台类型 Starlink V2MO
阶段状态 In Orbit
所有者/国家 SPXS/US

大型星座

Loading constellations...